[[{"header":{"parameterUnit":"m.s-1","parameterCategory":1,"la1":30.2991,"la2":30.254,"lo1":-89.0895,"lo2":-89.0444,"dy":0.0017,"dx":0.0017,"nx":28,"ny":28,"refTime":"2025-01-21T09:00:00:Z","depth":0,"parameterNumber":2,"parameterNumberName":"U-component_of_WINDS"},"data":[0,0,0,0,0,0,0,0,0,0,0,0,0,0,0,0,0,0,0,0,0,0,0,0,0,0,0,0,0,0,0,0,0,0,0,0,0,0,0,0,0,0,0,0,0,0,0,0,0,0,0,0,0,0,0,0,0,0,-1.7244,-1.7245,0,-1.7339,-1.734,-1.7341,-1.7274,-1.7271,-1.7268,-1.7266,-1.7362,-1.7367,-1.7372,0,0,0,0,0,0,0,0,0,0,0,0,0,-1.7005,-1.701,-1.7244,-1.7245,-1.7247,-1.7338,-1.734,-1.7341,-1.7275,-1.7271,-1.7268,-1.7264,-1.736,-1.7366,-1.7373,0,0,0,0,0,0,0,0,0,0,0,0,0,-1.7105,-1.7011,-1.7244,-1.7225,-1.7224,-1.7338,-1.734,-1.7341,-1.7276,-1.7271,-1.7267,-1.7263,-1.7358,-1.7366,-1.7374,-1.7512,0,0,-1.7398,-1.7402,0,0,0,0,0,0,0,0,-1.7099,-1.7114,-1.7226,-1.7226,-1.7226,-1.729,-1.7291,-1.7399,-1.7277,-1.7256,-1.7266,-1.726,-1.7342,-1.7351,-1.7378,-1.7517,-1.7521,-1.7399,-1.7404,-1.7407,-1.7409,0,0,0,0,0,0,0,-1.7093,-1.7109,-1.7282,-1.7228,-1.7228,-1.7211,-1.722,-1.7311,-1.7323,-1.7257,-1.7253,-1.7265,-1.7341,-1.7371,-1.738,-1.7522,-1.7399,-1.7406,-1.7411,-1.7414,-1.7777,-1.7782,0,0,0,0,0,0,-1.7087,-1.7104,-1.7279,-1.7284,-1.715,-1.7219,-1.7229,-1.7274,-1.7321,-1.7324,-1.7269,-1.7262,-1.7359,-1.7371,-1.7383,-1.7548,-1.7407,-1.7415,-1.7419,-1.7772,-1.7778,-1.7783,0,0,0,0,0,0,-1.7083,-1.7104,-1.7275,-1.7193,-1.7213,-1.7227,-1.7278,-1.7278,-1.7308,-1.733,-1.7332,-1.7297,-1.7356,-1.7372,-1.748,-1.755,-1.7418,-1.7426,-1.7767,-1.7774,-1.7781,-1.7879,0,0,0,0,0,0,-1.7076,-1.7102,-1.7156,-1.7195,-1.7218,-1.7372,-1.7283,-1.7283,-1.7322,-1.7314,-1.7357,-1.736,-1.7354,-1.7469,-1.7488,-1.7559,-1.7432,-1.776,-1.777,-1.7778,-1.7869,-1.7888,-1.7905,0,0,0,0,0,-1.7068,-1.718,-1.7159,-1.718,-1.7285,-1.7376,-1.7389,-1.7379,-1.7328,-1.7382,-1.7395,-1.7359,-1.7539,-1.748,-1.7502,-1.7576,-1.7756,-1.7767,-1.7778,-1.7861,-1.7885,-1.7904,0,0,0,0,0,0,-1.715,-1.7185,-1.7162,-1.729,-1.733,-1.7364,-1.7432,-1.7405,-1.746,-1.745,-1.7435,-1.7446,-1.7559,-1.7578,-1.7512,-1.7711,-1.7639,-1.7655,-1.7695,-1.7718,-1.7735,-1.7729,-1.7438,0,0,0,0,0,-1.7182,-1.7253,-1.728,-1.739,-1.7412,-1.7418,-1.7457,-1.7446,-1.7487,-1.7504,-1.7525,-1.7566,-1.7632,-1.7675,-1.7737,-1.7871,-1.7879,-1.7932,-1.795,-1.7964,-1.7978,-1.8049,-1.8073,-1.7819,-1.7819,-1.7819,0,0,-1.7251,-1.7279,-1.7325,-1.7407,-1.7437,-1.751,-1.7433,-1.7514,-1.7568,-1.7516,-1.762,-1.7637,-1.7681,-1.7803,-1.7857,-1.7822,-1.805,-1.7978,-1.7989,-1.7996,-1.8063,-1.8087,-1.8108,-1.7827,-1.7825,-1.7824,0,0,-1.7414,-1.7443,-1.7538,-1.7569,-1.7614,-1.7618,-1.764,-1.7678,-1.7687,-1.7791,-1.7753,-1.7816,-1.793,-1.7963,-1.7994,-1.8167,-1.8135,-1.8187,-1.828,-1.835,-1.837,-1.8387,-1.8449,-1.8471,-1.8201,-1.8201,-1.8201,0,-1.7495,-1.7604,-1.759,-1.7673,-1.771,-1.7666,-1.7761,-1.7791,-1.7855,-1.7881,-1.784,-1.7981,-1.8008,-1.8136,-1.8178,-1.8205,-1.8229,-1.8183,-1.8368,-1.8386,-1.8402,-1.846,-1.8483,-1.8207,-1.8206,-1.8206,-1.8205,0,-1.77,-1.7776,-1.7846,-1.7909,-1.7953,-1.8043,-1.8041,-1.8088,-1.8072,-1.8079,-1.8184,-1.8214,-1.8281,-1.831,-1.8295,-1.8435,-1.8412,-1.837,-1.8297,-1.8432,-1.8487,-1.8509,-1.8216,-1.8214,-1.8212,-1.821,0,0,-1.792,-1.7971,-1.7998,-1.8025,-1.8071,-1.8129,-1.8215,-1.8279,-1.832,-1.8364,-1.8435,-1.8531,-1.8492,-1.8528,-1.8516,-1.8577,-1.8711,-1.8527,-1.8528,-1.8561,-1.8866,-1.8899,-1.8925,-1.8689,-1.8694,-1.8697,-1.8863,0,-1.8086,-1.8236,-1.8225,-1.8367,-1.8437,-1.8394,-1.8468,-1.8504,-1.8512,-1.8572,-1.858,-1.8648,-1.8591,-1.8613,-1.8671,-1.8683,-1.8772,-1.867,-1.8756,-1.8759,-1.8747,-1.8953,-1.8988,-1.9143,-1.8884,-1.8888,-1.889,0,-1.83,-1.8352,-1.8501,-1.8535,-1.8563,-1.8631,-1.8688,-1.8745,-1.8784,-1.8786,-1.8825,-1.8802,-1.8888,-1.8812,-1.8929,-1.8859,-1.8893,-1.8904,-1.8909,-1.8918,-1.8834,-1.8968,-1.9193,-1.9216,-1.8924,-1.8921,-1.8919,0,-1.8446,-1.8552,-1.8655,-1.8679,-1.8722,-1.877,-1.879,-1.8824,-1.8863,-1.8912,-1.8937,-1.8996,-1.9029,-1.9074,-1.9067,-1.9013,-1.9186,-1.911,-1.919,-1.919,-1.923,-1.9228,-1.9464,-1.925,-1.925,-1.9249,-1.9249,0,-1.8633,-1.8726,-1.8721,-1.8785,-1.8886,-1.8872,-1.8973,-1.8987,-1.9017,-1.9081,-1.9047,-1.9108,-1.9095,-1.9156,-1.915,-1.9248,-1.9263,-1.9266,-1.9264,-1.927,-1.9269,-1.9293,-1.9282,-1.9255,-1.9254,-1.9253,-1.9252,0,-1.8815,-1.8815,-1.8924,-1.8954,-1.8964,-1.9038,-1.9063,-1.9122,-1.9126,-1.9208,-1.9226,-1.9233,-1.9302,-1.9299,-1.9378,-1.9374,-1.9494,-1.9479,-1.9481,-1.9478,-1.9558,-1.9551,-1.9818,-1.9852,-1.9616,-1.9619,-1.962,0,-1.8935,-1.9005,-1.9043,-1.9083,-1.9106,-1.9172,-1.9211,-1.9198,-1.924,-1.9288,-1.9341,-1.9407,-1.9459,-1.9571,-1.9583,-1.9642,-1.9628,-1.9717,-1.9637,-1.964,-1.963,-1.9626,-1.9633,-1.9734,-1.9737,-1.9739,-1.974,0,-1.9148,-1.9144,-1.9202,-1.926,-1.9308,-1.9353,-1.9394,-1.9429,-1.942,-1.9468,-1.9539,-1.9579,-1.9658,-1.9723,-1.9779,-1.9798,-1.9768,-1.9765,-1.9787,-1.9795,-1.9793,-1.9795,-1.9525,-1.976,-1.9758,-1.9756,-1.9755,-1.9755,-1.9303,-1.9363,-1.9398,-1.9464,-1.9493,-1.9531,-1.9588,-1.9599,-1.9657,-1.9721,-1.9709,-1.9787,-1.9822,-1.9894,-1.9918,-1.9978,-1.9946,-1.9978,-1.9986,-1.9994,-2.0003,-1.9782,-1.9988,-1.9988,-1.9987,-1.9987,-1.9986,0,-1.9515,-1.9535,-1.9595,-1.9653,-1.9704,-1.967,-1.9713,-1.9758,-1.9827,-1.9862,-1.9913,-1.9993,-2.0055,-2.0071,-2.013,-2.0176,-2.0163,-2.0192,-2.0189,-2.0194,-2.0028,-2.0004,-2.0201,-2.0201,-2.0201,-2.0201,-2.0201,-2.0201,-1.9631,-1.9731,-1.973,-1.9843,-1.9862,-1.9939,-1.9966,-2.0001,-2.0029,-2.0119,-2.0171,-2.018,-2.0207,-2.0268,-2.0323,-2.0326,-2.0349,-2.0384,-2.0381,-2.0227,-2.0205,-2.0185,-2.0162,-2.0389,-2.0389,-2.0542,-2.0543,-2.0544]},{"header":{"parameterUnit":"m.s-1","parameterCategory":1,"la1":30.2991,"la2":30.254,"lo1":-89.0895,"lo2":-89.0444,"dy":0.0017,"dx":0.0017,"nx":28,"ny":28,"refTime":"2025-01-21T09:00:00:Z","depth":0,"parameterNumber":3,"parameterNumberName":"V-component_of_WINDS"},"data":[0,0,0,0,0,0,0,0,0,0,0,0,0,0,0,0,0,0,0,0,0,0,0,0,0,0,0,0,0,0,0,0,0,0,0,0,0,0,0,0,0,0,0,0,0,0,0,0,0,0,0,0,0,0,0,0,0,0,-6.6037,-6.6039,0,-6.6196,-6.6197,-6.6199,-6.6125,-6.6121,-6.6117,-6.6113,-6.627,-6.6278,-6.6285,0,0,0,0,0,0,0,0,0,0,0,0,0,-6.5663,-6.567,-6.6037,-6.6039,-6.6041,-6.6195,-6.6198,-6.62,-6.6126,-6.6121,-6.6116,-6.6111,-6.6267,-6.6277,-6.6286,0,0,0,0,0,0,0,0,0,0,0,0,0,-6.5824,-6.5673,-6.6037,-6.6023,-6.6023,-6.6195,-6.6198,-6.62,-6.6127,-6.6121,-6.6115,-6.6109,-6.6264,-6.6276,-6.6288,-6.6481,0,0,-6.6324,-6.6329,0,0,0,0,0,0,0,0,-6.5815,-6.5838,-6.6023,-6.6024,-6.6025,-6.6134,-6.6123,-6.6294,-6.6128,-6.6087,-6.6113,-6.6106,-6.6229,-6.6244,-6.6286,-6.6488,-6.6495,-6.6325,-6.6332,-6.6337,-6.634,0,0,0,0,0,0,0,-6.5804,-6.583,-6.6099,-6.6025,-6.6027,-6.6006,-6.6022,-6.6155,-6.619,-6.609,-6.6085,-6.6105,-6.6229,-6.6275,-6.629,-6.6497,-6.6324,-6.6335,-6.6342,-6.6347,-6.6862,-6.6868,0,0,0,0,0,0,-6.5794,-6.5822,-6.6094,-6.6104,-6.5903,-6.6018,-6.6036,-6.6105,-6.6188,-6.6195,-6.611,-6.6101,-6.6258,-6.6276,-6.6295,-6.6525,-6.6337,-6.6348,-6.6355,-6.6855,-6.6863,-6.6871,0,0,0,0,0,0,-6.5786,-6.5819,-6.6088,-6.5962,-6.5994,-6.6031,-6.6109,-6.6111,-6.6158,-6.6203,-6.6208,-6.6152,-6.6254,-6.6278,-6.6435,-6.6529,-6.6353,-6.6364,-6.6848,-6.6858,-6.6867,-6.6987,0,0,0,0,0,0,-6.5776,-6.5817,-6.5892,-6.5964,-6.6002,-6.6228,-6.6115,-6.6119,-6.6179,-6.6169,-6.6244,-6.625,-6.6251,-6.6418,-6.6447,-6.6542,-6.6373,-6.6839,-6.6852,-6.6864,-6.6975,-6.7,-6.7021,0,0,0,0,0,-6.5763,-6.5919,-6.5896,-6.593,-6.6097,-6.6234,-6.6255,-6.6254,-6.6187,-6.6262,-6.6291,-6.6248,-6.6514,-6.6434,-6.6466,-6.6567,-6.6833,-6.6849,-6.6863,-6.6965,-6.6995,-6.7021,0,0,0,0,0,0,-6.5856,-6.5928,-6.5904,-6.6089,-6.6156,-6.6221,-6.6316,-6.6287,-6.6373,-6.6359,-6.6353,-6.637,-6.6532,-6.6565,-6.6475,-6.6757,-6.6663,-6.6685,-6.673,-6.6759,-6.6782,-6.677,-6.6383,0,0,0,0,0,-6.5898,-6.6005,-6.6062,-6.6219,-6.6254,-6.6279,-6.6339,-6.6332,-6.6401,-6.6428,-6.6468,-6.6535,-6.6633,-6.6698,-6.6791,-6.6979,-6.6993,-6.7064,-6.7087,-6.7106,-6.7125,-6.7225,-6.7256,-6.6919,-6.6919,-6.6919,0,0,-6.5986,-6.6039,-6.6107,-6.6239,-6.629,-6.6399,-6.6304,-6.6423,-6.6502,-6.6445,-6.6596,-6.6628,-6.6701,-6.6874,-6.6952,-6.6907,-6.7221,-6.7125,-6.714,-6.7148,-6.7243,-6.7275,-6.7303,-6.6929,-6.6927,-6.6926,0,0,-6.6202,-6.6254,-6.639,-6.6443,-6.6522,-6.6537,-6.657,-6.664,-6.6659,-6.681,-6.6769,-6.6862,-6.7033,-6.7086,-6.7135,-6.737,-6.7333,-6.74,-6.7521,-6.7618,-6.7645,-6.7668,-6.775,-6.778,-6.7419,-6.7419,-6.7419,0,-6.6301,-6.6465,-6.6463,-6.6585,-6.6644,-6.6598,-6.6734,-6.6785,-6.689,-6.693,-6.6878,-6.709,-6.7136,-6.732,-6.7377,-6.7419,-6.7454,-6.7391,-6.7642,-6.7665,-6.7687,-6.7765,-6.7796,-6.7427,-6.7426,-6.7425,-6.7424,0,-6.6581,-6.6696,-6.6796,-6.6899,-6.6969,-6.7098,-6.7112,-6.7183,-6.717,-6.719,-6.7343,-6.7397,-6.7499,-6.7542,-6.7531,-6.7724,-6.7693,-6.7642,-6.7547,-6.7727,-6.78,-6.783,-6.7437,-6.7435,-6.7432,-6.7431,0,0,-6.6861,-6.6961,-6.6998,-6.7043,-6.7127,-6.7214,-6.7339,-6.744,-6.75,-6.7573,-6.7676,-6.7821,-6.7773,-6.7829,-6.7823,-6.7909,-6.8088,-6.7846,-6.7848,-6.7888,-6.8302,-6.834,-6.8375,-6.8064,-6.807,-6.8075,-6.8296,0,-6.7081,-6.7303,-6.7304,-6.7507,-6.7611,-6.7569,-6.7677,-6.7739,-6.7761,-6.785,-6.7873,-6.7975,-6.7906,-6.7939,-6.8022,-6.8049,-6.8171,-6.8033,-6.8158,-6.8163,-6.814,-6.8413,-6.8453,-6.8659,-6.8324,-6.8329,-6.8333,0,-6.7369,-6.7452,-6.7667,-6.7733,-6.7776,-6.7875,-6.7967,-6.8054,-6.8121,-6.8131,-6.8193,-6.8173,-6.8298,-6.82,-6.8371,-6.8277,-6.8328,-6.8349,-6.8357,-6.8367,-6.8258,-6.843,-6.8725,-6.8756,-6.8378,-6.8374,-6.8371,0,-6.7549,-6.7715,-6.7864,-6.7905,-6.7986,-6.8056,-6.8093,-6.8155,-6.8215,-6.8295,-6.8333,-6.8426,-6.8477,-6.8548,-6.8552,-6.8481,-6.8723,-6.8627,-6.8733,-6.8733,-6.8785,-6.8782,-6.9092,-6.882,-6.882,-6.8819,-6.8819,0,-6.7794,-6.7927,-6.7946,-6.8038,-6.8184,-6.8182,-6.8326,-6.8356,-6.8411,-6.8506,-6.8475,-6.8564,-6.8565,-6.8656,-6.866,-6.8799,-6.8822,-6.8832,-6.8831,-6.8834,-6.8833,-6.8866,-6.8852,-6.8827,-6.8826,-6.8824,-6.8823,0,-6.802,-6.8039,-6.8198,-6.8263,-6.8282,-6.8386,-6.844,-6.8526,-6.8544,-6.8665,-6.8693,-6.8721,-6.8826,-6.8838,-6.8959,-6.8962,-6.9129,-6.9114,-6.9107,-6.9104,-6.9209,-6.9198,-6.9551,-6.9596,-6.9296,-6.9299,-6.9302,0,-6.8175,-6.8276,-6.8351,-6.8413,-6.8454,-6.8555,-6.8616,-6.8618,-6.8682,-6.8766,-6.8842,-6.8944,-6.9025,-6.9194,-6.9224,-6.9316,-6.9301,-6.9419,-6.9315,-6.9314,-6.9301,-6.9295,-6.9304,-6.9438,-6.9442,-6.9444,-6.9446,0,-6.8448,-6.8452,-6.8543,-6.8637,-6.8712,-6.8785,-6.8854,-6.8906,-6.8916,-6.899,-6.9098,-6.9161,-6.9285,-6.9386,-6.9476,-6.9511,-6.948,-6.9479,-6.9508,-6.9512,-6.9503,-6.9508,-6.916,-6.9471,-6.9468,-6.9466,-6.9465,-6.9464,-6.8642,-6.8729,-6.8795,-6.8897,-6.8949,-6.9014,-6.9098,-6.9127,-6.9217,-6.9319,-6.9314,-6.9432,-6.9494,-6.9613,-6.9655,-6.9745,-6.9706,-6.9748,-6.9759,-6.9769,-6.9779,-6.949,-6.9762,-6.9761,-6.976,-6.976,-6.9759,0,-6.8911,-6.8952,-6.9045,-6.9143,-6.9223,-6.9188,-6.9262,-6.933,-6.9435,-6.9497,-6.9578,-6.97,-6.9797,-6.9835,-6.9929,-6.9994,-6.9982,-7.0019,-7.0013,-7.0021,-6.981,-6.9774,-7.0027,-7.0027,-7.0027,-7.0027,-7.0026,-7.0026,-6.9061,-6.9205,-6.9217,-6.9386,-6.9425,-6.9541,-6.9586,-6.9645,-6.9694,-6.9833,-6.9914,-6.9938,-6.999,-7.0087,-7.0174,-7.0182,-7.0217,-7.026,-7.0262,-7.0063,-7.0036,-7.0011,-6.9977,-7.0268,-7.0269,-7.0466,-7.0468,-7.0469]}]]